RH
86 86 92 92 86 95 93 94 85 82 85 82 76 70 68 81 89 94 98 80 82 77 74 73 74 72 72 72 72 73 69 68 73 74 71 74 75 76 77 77 77 77 79
92 94 94 90 93 93 95 90 85 86 86 77 73 71 76 76 83 91 93 91 84 82 75 71 71 72 74 74 72 73 74 74 73 70 71 71 74 78 77 77 77 78 79
90 91 94 94 92 90 87 82 88 88 86 77 70 70 74 75 74 83 89 95 92 81 78 76 72 74 75 72 70 73 73 74 73 72 72 74 77 80 79 79 78 79 80
91 95 94 93 85 88 78 78 88 88 85 68 70 73 77 77 77 79 83 87 89 85 84 79 79 79 72 68 68 70 72 74 74 76 80 80 79 80 80 80 78 79 80
86 93 94 92 88 90 89 75 79 74 78 76 69 72 72 76 78 70 81 83 88 84 89 84 83 82 72 71 72 75 76 79 83 81 81 79 80 80 80 80 78 79 80
85 91 94 89 91 85 84 83 78 69 70 70 49 60 70 72 78 83 79 74 84 84 88 90 95 91 84 76 77 76 75 76 80 79 83 85 84 84 82 81 81 79 80
84 88 93 92 86 81 75 79 69 69 70 68 66 69 60 62 69 74 79 82 82 80 84 88 96 97 92 86 85 82 76 74 74 76 80 83 81 84 85 85 82 80 79
89 88 91 93 89 87 80 85 82 78 78 78 73 81 68 58 70 64 73 72 78 80 79 78 86 90 89 90 89 84 84 78 70 70 74 82 81 82 84 85 86 82 78
84 85 88 91 88 93 88 86 85 78 71 75 75 67 71 72 82 71 69 70 68 85 83 81 81 82 88 87 82 84 84 87 78 69 70 78 83 81 81 84 87 84 80
85 82 87 90 89 90 91 85 77 85 82 74 71 68 75 75 73 70 72 72 69 73 78 79 80 80 83 86 82 83 86 88 81 75 70 73 80 79 78 80 85 86 81
84 81 81 88 91 92 90 86 87 90 90 86 76 79 74 76 82 81 77 70 71 71 72 73 73 77 72 77 86 90 90 86 84 79 79 78 78 73 71 72 76 80 78
89 87 81 90 90 92 91 89 88 82 90 91 88 90 69 68 80 73 84 82 75 65 72 71 71 73 70 73 70 78 83 87 85 82 80 79 79 77 69 68 68 70 72
96 91 89 92 92 89 92 91 92 91 88 90 90 85 84 82 76 80 79 84 77 75 69 71 71 73 66 75 73 79 83 88 88 86 84 82 80 81 80 78 75 72 70
75 86 82 89 91 88 88 92 93 91 92 88 85 91 90 88 91 81 69 72 75 81 84 67 73 72 70 73 73 79 77 87 87 87 86 86 84 84 84 83 84 82 79
75 86 80 86 87 91 90 92 91 92 92 93 91 88 92 91 88 86 82 73 70 76 75 71 73 69 74 72 72 73 77 76 86 88 89 87 86 87 86 85 84 84 82
78 87 84 82 88 90 92 94 90 92 94 92 93 93 92 93 89 92 90 83 83 73 74 78 70 71 74 60 67 74 70 81 83 86 89 87 87 86 87 86 84 84 85
79 80 82 80 83 90 90 96 93 89 93 91 90 90 91 90 91 93 94 95 93 87 84 78 85 83 80 76 75 77 77 72 79 83 82 86 88 88 88 89 89 85 85
89 88 86 80 80 85 88 92 94 86 94 92 90 93 91 84 92 93 94 91 92 93 92 91 89 84 80 79 82 83 74 69 83 77 86 88 88 88 88 89 91 92 91
85 93 87 84 82 83 88 91 89 91 91 89 89 92 90 89 93 94 94 94 94 90 95 96 97 96 95 89 85 85 82 84 80 80 82 84 84 84 86 90 92 93 95
66 86 89 83 80 80 81 84 89 93 92 90 89 91 90 92 91 91 93 95 95 96 96 97 97 97 97 92 94 95 93 94 90 70 76 78 90 89 92 92 91 92 94
70 72 82 85 81 78 73 78 82 89 94 94 92 90 91 89 90 89 87 94 95 96 97 98 98 98 98 97 96 96 97 94 94 93 84 96 89 83 89 93 93 91 91
79 76 91 82 83 74 79 88 83 84 91 93 91 94 91 89 91 91 92 91 87 95 96 98 98 98 96 97 97 96 97 98 98 90 96 80 91 89 90 97 90 85 84
59 74 71 88 87 80 86 88 88 77 88 90 88 84 89 74 90 89 92 92 93 95 90 92 95 95 94 91 93 95 96 98 97 80 95 93 94 96 94 96 86 85 84
65 59 74 70 76 82 90 90 88 77 78 82 86 87 87 83 89 87 90 93 92 88 87 85 87 75 78 83 94 83 94 97 96 89 96 98 97 95 97 84 87 85 84
75 64 67 82 78 74 92 92 92 82 77 77 78 80 82 83 89 92 87 94 94 94 91 92 89 90 90 92 93 98 97 99 98 97 97 98 97 94 98 87 82 89 84
71 72 67 65 80 80 92 95 94 77 81 78 75 78 92 83 96 97 90 88 92 84 88 89 93 96 98 96 98 97 94 99 99 99 97 98 98 94 93 96 92 89 88
Wind_Speed
4 4 3 2 3 3 1 1 1 1 3 4 1 6 7 6 5 3 2 10 8 9 9 8 7 6 5 5 4 4 3 2 0 0 2 3 3 3 4 6 6 7 8
4 4 4 3 2 3 4 4 4 3 2 2 4 6 5 5 6 5 3 5 10 8 9 8 8 7 7 6 5 5 5 3 3 2 2 3 4 4 4 5 6 7 7
4 5 3 2 2 2 5 3 5 1 2 2 1 5 5 5 5 5 3 2 3 9 10 9 8 8 7 7 6 6 5 5 5 5 4 5 5 6 5 5 5 6 5
6 5 4 4 4 4 3 2 3 2 2 1 3 4 5 4 5 5 4 4 4 4 7 9 9 9 9 8 7 7 7 7 7 7 7 6 6 6 5 4 4 4 3
6 5 3 2 4 3 3 3 2 4 2 2 2 2 2 4 5 5 5 5 5 4 3 7 10 9 10 9 8 9 9 8 8 8 7 7 7 6 5 4 2 1 1
6 5 4 2 4 2 2 2 2 2 3 3 2 3 2 3 3 4 5 5 5 5 5 5 4 4 11 11 10 10 10 10 9 9 8 7 6 6 5 3 3 1 1
5 5 3 3 3 3 3 1 1 3 0 2 3 2 2 3 4 4 4 4 5 6 5 5 4 3 4 12 11 10 11 11 10 9 7 6 6 5 4 3 3 3 3
6 5 5 4 5 2 4 2 2 2 1 1 3 1 1 4 1 5 3 5 6 4 5 6 5 6 5 4 7 11 11 11 11 10 9 7 6 5 5 4 4 5 5
6 7 5 4 4 3 4 3 2 3 2 1 2 4 2 3 2 2 1 3 5 5 5 5 6 6 6 5 8 9 12 11 12 11 10 8 8 8 7 7 7 7 7
6 6 6 6 6 3 4 3 3 2 3 2 2 2 3 4 2 2 2 1 2 5 6 5 5 7 6 5 10 12 12 11 12 12 12 11 10 11 10 10 10 9 9
6 6 7 6 5 3 3 4 2 4 2 2 2 1 1 0 1 3 2 3 2 4 4 5 5 5 6 6 5 7 13 12 13 14 14 14 13 14 13 13 13 13 13
4 5 6 6 6 5 5 3 3 5 3 2 2 2 2 1 1 1 1 3 2 3 4 4 5 5 6 5 9 12 14 14 15 15 14 14 15 15 16 15 15 16 15
3 6 6 6 5 5 5 5 4 4 4 2 3 2 1 2 2 2 2 1 1 3 3 3 5 5 6 5 6 11 12 14 16 15 14 15 14 14 15 16 16 17 18
7 7 8 6 7 6 6 6 3 3 3 3 3 2 2 2 2 2 3 3 2 2 2 4 2 5 5 4 7 9 8 12 16 16 14 16 16 14 14 15 16 18 19
5 8 9 7 7 7 7 6 4 4 3 3 4 3 2 2 1 0 1 2 4 1 3 3 2 3 4 4 7 7 8 12 14 17 14 16 18 14 17 19 20 21 22
6 8 9 8 6 6 6 6 5 5 5 4 4 4 3 2 1 1 2 2 0 3 1 3 3 3 2 2 5 6 7 9 10 15 15 17 18 16 17 20 22 22 23
7 9 11 11 10 8 7 6 6 6 6 5 4 5 6 4 2 2 1 1 1 3 2 4 2 2 3 4 6 4 5 6 7 15 17 15 14 14 18 15 19 23 22
6 8 10 11 11 9 8 8 7 6 6 6 6 5 6 3 5 4 2 3 2 2 2 3 2 3 3 4 4 6 5 4 4 9 10 12 13 14 15 15 15 16 16
7 7 8 11 12 11 9 8 9 7 7 7 7 7 7 6 5 3 3 3 3 2 3 3 4 2 3 2 4 3 3 5 3 9 11 11 9 10 12 11 10 10 10
10 8 8 10 11 11 11 10 9 7 7 7 7 7 7 7 7 6 5 6 4 4 3 3 3 3 3 3 2 2 4 2 5 7 7 6 8 9 9 8 8 7 7
11 10 10 9 10 10 9 10 10 9 8 7 7 7 7 8 10 9 5 6 5 4 3 3 3 2 3 3 3 2 3 3 5 4 4 3 4 6 5 5 6 11 10
12 9 10 13 12 10 13 15 12 9 8 8 8 7 7 8 10 13 14 12 9 6 6 4 3 5 5 4 3 2 3 3 4 3 1 9 2 5 4 4 11 11 13
16 15 13 10 13 13 15 17 16 9 8 9 10 9 7 8 9 7 10 13 12 12 12 6 7 6 5 5 3 3 4 4 4 8 2 7 1 4 3 5 9 11 11
16 16 16 14 13 12 14 17 17 12 10 11 11 11 10 10 8 8 7 7 7 7 8 7 10 13 9 7 6 8 5 4 5 8 3 4 1 3 2 5 8 11 10
14 15 15 15 16 16 16 17 13 11 13 13 11 12 11 11 11 14 9 8 8 8 7 12 12 12 12 11 7 1 6 4 4 4 1 2 2 2 2 2 3 6 13
16 12 15 16 17 16 15 19 16 11 12 10 11 11 13 14 13 14 10 9 9 12 7 6 5 6 9 8 11 8 6 6 4 3 3 3 1 1 3 1 0 4 3
Wind_Direction
178 161 175 152 182 152 206 268 178 82 354 4 53 127 144 138 144 149 166 162 163 164 159 156 158 160 156 157 158 171 169 179 309 15 30 11 10 0 359 1 5 360 8
175 148 178 166 216 162 195 236 221 174 218 261 106 151 147 145 162 165 176 172 177 178 167 172 174 177 189 179 189 207 201 208 239 277 290 311 325 327 343 358 357 358 358
137 169 165 144 179 174 174 201 267 301 70 298 173 153 161 153 167 170 176 184 188 189 192 189 193 197 193 204 209 219 227 234 254 268 284 299 305 323 338 346 354 2 4
145 152 164 205 186 146 140 160 156 257 272 210 166 167 173 172 165 179 165 189 197 201 202 201 204 209 214 221 228 239 248 256 262 275 285 294 296 302 312 328 346 12 30
150 131 118 187 96 86 117 149 130 142 177 190 202 143 166 183 182 171 187 194 209 209 204 223 213 218 227 234 243 253 260 261 264 273 281 286 288 292 298 308 325 41 68
150 130 122 163 116 149 128 102 105 130 203 161 214 152 235 211 196 186 196 200 197 222 210 213 228 236 232 238 243 249 255 259 260 267 270 277 284 286 280 287 288 229 177
141 150 142 145 144 171 118 81 129 90 104 149 83 7 315 180 214 212 206 214 214 212 215 217 213 224 244 237 242 243 250 253 255 261 263 262 276 278 273 258 223 219 220
155 162 167 185 148 153 140 150 110 122 40 115 130 108 19 332 289 228 209 211 221 201 217 224 213 224 232 236 236 241 244 252 253 255 259 249 266 272 266 253 228 229 225
171 159 176 171 163 171 152 163 150 132 137 293 201 135 79 230 351 332 190 209 207 200 213 217 220 228 227 229 237 240 239 245 251 251 252 245 247 256 258 250 238 235 235
204 169 169 171 178 185 168 169 171 112 108 211 337 47 68 145 145 351 336 273 243 214 216 224 221 226 223 227 236 235 237 232 242 248 248 244 239 245 246 246 243 236 235
201 177 166 171 165 192 180 162 143 140 154 144 161 59 353 90 105 122 261 302 331 236 223 221 220 219 224 222 231 239 235 231 231 240 243 244 238 242 247 247 247 246 243
191 197 177 174 177 162 179 178 163 153 165 141 118 178 173 149 184 146 182 264 230 286 234 235 235 229 232 225 227 230 232 234 234 236 239 242 243 244 247 251 252 251 250
186 197 184 180 176 189 188 169 166 156 172 155 133 165 157 137 160 155 117 245 225 288 304 236 233 236 242 234 240 238 237 232 237 239 239 245 244 253 251 252 256 257 256
195 183 194 190 178 187 179 175 169 182 175 188 208 181 211 198 151 174 168 145 1 330 328 266 265 233 243 254 259 265 258 244 243 243 239 247 247 243 257 256 256 254 252
183 183 190 194 184 188 190 174 176 188 191 206 226 219 247 252 197 234 191 167 148 50 300 297 302 273 241 220 241 242 243 250 242 247 249 244 251 236 246 243 249 252 249
195 179 189 197 190 187 192 188 186 185 187 222 214 207 233 259 284 329 15 103 321 147 212 216 279 276 297 281 267 252 257 270 264 260 256 252 253 254 245 241 243 255 253
202 194 194 193 193 193 190 189 203 201 201 218 231 217 243 245 258 277 265 134 124 146 190 297 263 295 300 291 302 286 270 261 261 259 263 263 263 264 264 252 247 250 257
207 199 192 193 194 200 193 195 201 198 199 211 225 217 239 249 252 222 244 273 261 173 163 277 273 291 261 299 298 302 302 291 299 292 288 273 269 268 277 272 255 255 260
202 203 183 190 193 201 200 202 205 204 199 203 215 210 223 221 249 245 231 248 249 240 191 200 271 271 277 317 322 306 302 319 310 290 291 299 303 293 285 283 269 263 265
212 209 201 197 198 198 201 203 204 207 211 211 212 213 217 207 215 224 229 231 232 244 248 250 266 270 255 295 274 288 314 299 303 318 293 269 284 298 327 335 317 296 300
222 205 204 206 204 203 207 207 209 208 208 221 221 219 218 216 213 214 209 234 229 238 247 256 270 277 268 295 271 267 268 287 295 251 293 287 325 325 320 330 16 39 56
219 213 202 202 199 205 202 197 200 212 207 209 227 227 228 224 226 225 228 224 209 219 234 216 234 244 266 248 249 261 279 314 303 269 290 307 334 312 314 350 61 80 77
216 221 219 203 209 209 198 198 199 210 216 220 222 227 227 230 218 227 232 234 238 236 233 211 236 237 259 247 240 271 260 233 260 283 189 291 301 296 327 49 87 86 66
213 215 221 217 213 213 202 202 203 213 219 222 223 222 222 229 217 212 230 244 244 238 230 222 229 254 244 257 215 262 255 252 270 281 173 259 239 273 38 90 81 90 68
211 212 213 214 216 221 202 206 199 211 226 230 223 225 225 227 219 214 224 238 252 256 243 236 234 237 245 250 243 85 276 276 279 269 238 239 273 275 70 123 86 113 68
216 214 220 218 214 219 203 206 199 213 222 228 234 234 221 225 209 209 216 229 245 255 249 263 265 257 243 252 249 208 248 247 243 262 236 215 181 85 339 280 90 42 53